If you wish to contribute or participate in the discussions about articles you are invited to join SKYbrary as a registered user

 Actions

Kitadaito Airport

From SKYbrary Wiki

RORK
Airport
ICAO: RORK – IATA: KTD
Summary
Name Kitadaito Airport
Region Asia and Pacific
Territory Japan JP.gif
Location Kitadaito, Okinawa Prefecture
Serving Kitadaitojima
Elevation 21.641 m
71 ft21.641 m
Coordinates 25° 56' 40.41" N, 131° 19' 28.05" E
Runways
Designator Length Width Surface ROPS
3/21 1500 m4,921.26 ft
45 m147.638 ft
ASP /


METAR
Observation RORK 210200Z AUTO 08027KT 9999 SCT017 BKN021 BKN025 23/20 Q1019
Station Kitadaito Island
Date/Time 21 November 2019 02:00:00
Wind direction 80°
Wind speed 27 kts
Lowest cloud amount scattered clouds
Temperature 23°C
Dew point 20°C
Humidity 83%
QNH 1019 hPa
Weather condition n/a

Kitadaitō Airport is located on the island of Kitadaitōjima in the village of Kitadaitō, Shimajiri District, Okinawa Prefecture, Japan.

Climatology

Humid Sub-tropical climate (Köppen climate classification Cfa)

Maps

Terrain

Loading map...

Airport Layout

Loading map...


Accidents & Serious Incidents at or in vicinity of RORK

None on SKYbrary